Location: Byszew
(52.1813°N, 19.2693°E)
Time: 09:40:38
(UTC+00:00)

CAS-4B - Pass Details

Date: 07 July 2022
Orbit: 522 x 536 km, 43.0° (Epoch: 07 August)

Event Time Altitude Azimuth Distance (km) Brightness Sun altitude
Exits shadow 01:33:07 - 246° (WSW) 2,072 ? -7.0°
Reaches altitude 10° 01:34:07 10° 238° (WSW) 1,756 ? -6.9°
Maximum altitude 01:37:06 20° 190° (S) 1,241 ? -6.6°
Drops below altitude 10° 01:40:05 10° 142° (SE) 1,759 ? -6.3°
Sets 01:42:44 0° 125° (SE) 2,649 ? -6.1°
